Time,TemperatureF,DewpointF,PressureIn,WindDirection,WindDirectionDegrees,WindSpeedMPH,WindSpeedGustMPH,Humidity,HourlyPrecipIn,Conditions,Clouds,dailyrainin,SoftwareType,DateUTC
2013-09-14 00:02:00,55.0,37.8,28.50,West,270,8.0,12.0,52,-99.99,,,-99.99,meteohub,2013-09-13 22:02:00,
2013-09-14 00:17:00,54.9,37.0,28.50,West,270,6.0,8.0,51,-99.99,,,-99.99,meteohub,2013-09-13 22:17:00,
2013-09-14 00:32:00,54.9,37.0,28.50,West,270,9.0,9.0,51,-99.99,,,-99.99,meteohub,2013-09-13 22:32:00,
2013-09-14 00:47:00,54.7,36.9,28.50,West,270,9.0,10.0,51,-99.99,,,-99.99,meteohub,2013-09-13 22:47:00,
2013-09-14 01:02:00,54.9,37.0,28.48,West,270,8.0,11.0,51,-99.99,,,-99.99,meteohub,2013-09-13 23:02:00,
2013-09-14 01:17:00,54.9,37.0,28.48,West,270,13.0,14.0,51,-99.99,,,-99.99,meteohub,2013-09-13 23:17:00,
2013-09-14 01:32:00,55.0,37.2,28.49,West,270,8.0,13.0,51,-99.99,,,-99.99,meteohub,2013-09-13 23:32:00,
2013-09-14 01:47:00,54.9,36.5,28.48,West,270,10.0,12.0,50,-99.99,,,-99.99,meteohub,2013-09-13 23:47:00,
2013-09-14 02:02:00,54.9,36.5,28.48,NW,315,11.0,14.0,50,-99.99,,,-99.99,meteohub,2013-09-14 00:02:00,
2013-09-14 02:17:00,54.9,36.5,28.48,WSW,248,10.0,11.0,50,-99.99,,,-99.99,meteohub,2013-09-14 00:17:00,
2013-09-14 02:32:00,54.9,36.5,28.47,WSW,248,8.0,15.0,50,-99.99,,,-99.99,meteohub,2013-09-14 00:32:00,
2013-09-14 02:47:00,54.5,36.3,28.46,West,270,17.0,17.0,50,-99.99,,,-99.99,meteohub,2013-09-14 00:47:00,
2013-09-14 03:02:00,54.3,36.1,28.46,West,270,8.0,17.0,50,-99.99,,,-99.99,meteohub,2013-09-14 01:02:00,
2013-09-14 03:17:00,54.1,35.4,28.46,West,270,13.0,13.0,49,-99.99,,,-99.99,meteohub,2013-09-14 01:17:00,
2013-09-14 03:32:00,54.0,35.2,28.45,West,270,10.0,13.0,49,-99.99,,,-99.99,meteohub,2013-09-14 01:32:00,
2013-09-14 03:47:00,54.0,35.2,28.45,West,270,11.0,15.0,49,-99.99,,,-99.99,meteohub,2013-09-14 01:47:00,
2013-09-14 04:02:00,53.6,34.9,28.44,West,270,11.0,15.0,49,-99.99,,,-99.99,meteohub,2013-09-14 02:02:00,
2013-09-14 04:18:00,53.6,34.9,28.44,West,270,10.0,15.0,49,-99.99,,,-99.99,meteohub,2013-09-14 02:18:00,
2013-09-14 04:33:00,53.4,34.2,28.44,West,270,9.0,10.0,48,-99.99,,,-99.99,meteohub,2013-09-14 02:33:00,
2013-09-14 04:48:00,53.1,33.8,28.44,NW,315,12.0,13.0,48,-99.99,,,-99.99,meteohub,2013-09-14 02:48:00,
2013-09-14 05:02:00,53.4,34.7,28.43,WNW,293,12.0,13.0,49,-99.99,,,-99.99,meteohub,2013-09-14 03:02:00,
2013-09-14 05:17:00,53.4,34.7,28.43,NW,315,6.0,12.0,49,-99.99,,,-99.99,meteohub,2013-09-14 03:17:00,
2013-09-14 05:32:00,53.2,34.5,28.43,West,270,6.0,16.0,49,-99.99,,,-99.99,meteohub,2013-09-14 03:32:00,
2013-09-14 05:47:00,53.1,33.8,28.43,WNW,293,8.0,12.0,48,-99.99,,,-99.99,meteohub,2013-09-14 03:47:00,
2013-09-14 06:02:00,52.7,33.6,28.42,West,270,13.0,13.0,48,-99.99,,,-99.99,meteohub,2013-09-14 04:02:00,
2013-09-14 06:17:00,52.7,33.6,28.42,West,270,7.0,13.0,48,-99.99,,,-99.99,meteohub,2013-09-14 04:17:00,
2013-09-14 06:32:00,52.7,33.6,28.43,WSW,248,9.0,11.0,48,-99.99,,,-99.99,meteohub,2013-09-14 04:32:00,
2013-09-14 06:47:00,52.7,33.6,28.43,WNW,293,7.0,11.0,48,-99.99,,,-99.99,meteohub,2013-09-14 04:47:00,
2013-09-14 07:02:00,52.7,33.6,28.43,WSW,248,10.0,12.0,48,-99.99,,,-99.99,meteohub,2013-09-14 05:02:00,
2013-09-14 07:17:00,52.3,32.7,28.43,West,270,9.0,14.0,47,-99.99,,,-99.99,meteohub,2013-09-14 05:17:00,
2013-09-14 07:32:00,52.3,32.7,28.43,WNW,293,11.0,11.0,47,-99.99,,,-99.99,meteohub,2013-09-14 05:32:00,
2013-09-14 07:47:00,52.7,33.1,28.43,West,270,10.0,11.0,47,-99.99,,,-99.99,meteohub,2013-09-14 05:47:00,
2013-09-14 08:02:00,52.7,33.1,28.43,WSW,248,10.0,15.0,47,-99.99,,,-99.99,meteohub,2013-09-14 06:02:00,
2013-09-14 08:17:00,52.9,33.3,28.43,WNW,293,14.0,14.0,47,-99.99,,,-99.99,meteohub,2013-09-14 06:17:00,
2013-09-14 08:32:00,53.6,33.8,28.43,West,270,12.0,14.0,47,-99.99,,,-99.99,meteohub,2013-09-14 06:32:00,
2013-09-14 08:47:00,54.3,34.5,28.43,West,270,13.0,13.0,47,-99.99,,,-99.99,meteohub,2013-09-14 06:47:00,
2013-09-14 09:02:00,55.6,36.7,28.44,WSW,248,11.0,13.0,49,-99.99,,,-99.99,meteohub,2013-09-14 07:02:00,
2013-09-14 09:17:00,56.8,38.5,28.44,West,270,9.0,12.0,50,-99.99,,,-99.99,meteohub,2013-09-14 07:17:00,
2013-09-14 09:32:00,59.5,42.8,28.43,WNW,293,14.0,14.0,54,-99.99,,,-99.99,meteohub,2013-09-14 07:32:00,
2013-09-14 09:47:00,60.6,44.8,28.44,WSW,248,9.0,15.0,56,-99.99,,,-99.99,meteohub,2013-09-14 07:47:00,
2013-09-14 10:02:00,60.1,43.9,28.44,NW,315,12.0,14.0,55,-99.99,,,-99.99,meteohub,2013-09-14 08:02:00,
2013-09-14 10:17:00,61.0,44.8,28.44,WSW,248,9.0,12.0,55,-99.99,,,-99.99,meteohub,2013-09-14 08:17:00,
2013-09-14 10:32:00,61.5,45.7,28.44,WSW,248,7.0,15.0,56,-99.99,,,-99.99,meteohub,2013-09-14 08:32:00,
2013-09-14 10:47:00,61.9,46.4,28.45,West,270,5.0,8.0,57,-99.99,,,-99.99,meteohub,2013-09-14 08:47:00,
2013-09-14 11:02:00,63.0,46.9,28.45,West,270,7.0,14.0,56,-99.99,,,-99.99,meteohub,2013-09-14 09:02:00,
2013-09-14 11:17:00,65.1,49.1,28.45,NW,315,12.0,12.0,56,-99.99,,,-99.99,meteohub,2013-09-14 09:17:00,
2013-09-14 11:32:00,66.4,49.6,28.45,WNW,293,17.0,20.0,55,-99.99,,,-99.99,meteohub,2013-09-14 09:32:00,
2013-09-14 11:47:00,67.1,48.9,28.45,NW,315,9.0,17.0,52,-99.99,,,-99.99,meteohub,2013-09-14 09:47:00,
2013-09-14 12:02:00,67.5,49.8,28.46,NW,315,7.0,13.0,53,-99.99,,,-99.99,meteohub,2013-09-14 10:02:00,
2013-09-14 12:17:00,67.8,49.1,28.46,NNW,338,9.0,12.0,51,-99.99,,,-99.99,meteohub,2013-09-14 10:17:00,
2013-09-14 12:32:00,67.6,49.5,28.47,West,270,5.0,13.0,52,-99.99,,,-99.99,meteohub,2013-09-14 10:32:00,
2013-09-14 12:47:00,67.3,48.6,28.48,NW,315,7.0,12.0,51,-99.99,,,-99.99,meteohub,2013-09-14 10:47:00,
2013-09-14 13:02:00,68.2,48.4,28.48,NW,315,12.0,12.0,49,-99.99,,,-99.99,meteohub,2013-09-14 11:02:00,
2013-09-14 13:17:00,68.0,48.2,28.47,West,270,12.0,12.0,49,-99.99,,,-99.99,meteohub,2013-09-14 11:17:00,
2013-09-14 13:32:00,68.9,50.0,28.47,WSW,248,9.0,12.0,51,-99.99,,,-99.99,meteohub,2013-09-14 11:32:00,
2013-09-14 13:47:00,69.3,48.7,28.48,North,0,9.0,11.0,48,-99.99,,,-99.99,meteohub,2013-09-14 11:47:00,
2013-09-14 14:02:00,69.6,48.6,28.48,NNW,338,7.0,13.0,47,-99.99,,,-99.99,meteohub,2013-09-14 12:02:00,
2013-09-14 14:17:00,70.3,49.6,28.48,NW,315,6.0,9.0,48,-99.99,,,-99.99,meteohub,2013-09-14 12:17:00,
2013-09-14 14:32:00,70.5,48.7,28.48,West,270,11.0,11.0,46,-99.99,,,-99.99,meteohub,2013-09-14 12:32:00,
2013-09-14 14:47:00,70.0,48.2,28.48,North,0,6.0,11.0,46,-99.99,,,-99.99,meteohub,2013-09-14 12:47:00,
2013-09-14 15:02:00,69.3,49.8,28.48,NW,315,8.0,9.0,50,-99.99,,,-99.99,meteohub,2013-09-14 13:02:00,
2013-09-14 15:17:00,68.9,50.0,28.48,WSW,248,9.0,9.0,51,-99.99,,,-99.99,meteohub,2013-09-14 13:17:00,
2013-09-14 15:32:00,68.7,48.7,28.48,NNW,338,6.0,10.0,49,-99.99,,,-99.99,meteohub,2013-09-14 13:32:00,
2013-09-14 15:47:00,69.6,50.7,28.48,WSW,248,8.0,11.0,51,-99.99,,,-99.99,meteohub,2013-09-14 13:47:00,
2013-09-14 16:02:00,70.0,50.5,28.48,SW,225,6.0,13.0,50,-99.99,,,-99.99,meteohub,2013-09-14 14:02:00,
2013-09-14 16:17:00,69.4,49.5,28.48,WSW,248,7.0,12.0,49,-99.99,,,-99.99,meteohub,2013-09-14 14:17:00,
2013-09-14 16:32:00,69.4,50.0,28.48,WSW,248,9.0,13.0,50,-99.99,,,-99.99,meteohub,2013-09-14 14:32:00,
2013-09-14 16:47:00,68.5,49.6,28.49,NW,315,5.0,9.0,51,-99.99,,,-99.99,meteohub,2013-09-14 14:47:00,
2013-09-14 17:02:00,67.8,49.6,28.48,NW,315,3.0,8.0,52,-99.99,,,-99.99,meteohub,2013-09-14 15:02:00,
2013-09-14 17:17:00,67.6,49.8,28.48,West,270,5.0,11.0,53,-99.99,,,-99.99,meteohub,2013-09-14 15:17:00,
2013-09-14 17:32:00,67.1,49.8,28.48,WSW,248,8.0,10.0,54,-99.99,,,-99.99,meteohub,2013-09-14 15:32:00,
2013-09-14 17:47:00,66.7,49.6,28.48,West,270,7.0,13.0,54,-99.99,,,-99.99,meteohub,2013-09-14 15:47:00,
2013-09-14 18:02:00,66.4,49.6,28.47,WSW,248,9.0,12.0,55,-99.99,,,-99.99,meteohub,2013-09-14 16:02:00,
2013-09-14 18:17:00,65.8,49.3,28.47,SW,225,10.0,11.0,55,-99.99,,,-99.99,meteohub,2013-09-14 16:17:00,
2013-09-14 18:32:00,65.3,48.7,28.47,WSW,248,7.0,10.0,55,-99.99,,,-99.99,meteohub,2013-09-14 16:32:00,
2013-09-14 18:47:00,64.4,47.8,28.46,WSW,248,7.0,13.0,55,-99.99,,,-99.99,meteohub,2013-09-14 16:47:00,
2013-09-14 19:02:00,63.7,47.3,28.46,SSW,203,4.0,8.0,55,-99.99,,,-99.99,meteohub,2013-09-14 17:02:00,
2013-09-14 19:17:00,63.1,46.8,28.46,West,270,4.0,11.0,55,-99.99,,,-99.99,meteohub,2013-09-14 17:17:00,
2013-09-14 19:32:00,62.8,45.9,28.46,SW,225,11.0,11.0,54,-99.99,,,-99.99,meteohub,2013-09-14 17:32:00,
2013-09-14 19:47:00,62.1,44.2,28.45,West,270,3.0,11.0,52,-99.99,,,-99.99,meteohub,2013-09-14 17:47:00,
2013-09-14 20:02:00,61.5,43.2,28.45,WSW,248,8.0,9.0,51,-99.99,,,-99.99,meteohub,2013-09-14 18:02:00,
2013-09-14 20:17:00,61.2,42.4,28.45,SW,225,2.0,9.0,50,-99.99,,,-99.99,meteohub,2013-09-14 18:17:00,
2013-09-14 20:32:00,60.4,41.2,28.45,South,180,8.0,12.0,49,-99.99,,,-99.99,meteohub,2013-09-14 18:32:00,
2013-09-14 20:47:00,60.1,40.8,28.45,SW,225,8.0,12.0,49,-99.99,,,-99.99,meteohub,2013-09-14 18:47:00,
2013-09-14 21:02:00,59.7,39.9,28.45,SW,225,7.0,9.0,48,-99.99,,,-99.99,meteohub,2013-09-14 19:02:00,
2013-09-14 21:17:00,59.5,39.4,28.44,West,270,10.0,14.0,47,-99.99,,,-99.99,meteohub,2013-09-14 19:17:00,
2013-09-14 21:32:00,59.5,39.4,28.44,SW,225,6.0,10.0,47,-99.99,,,-99.99,meteohub,2013-09-14 19:32:00,
2013-09-14 21:47:00,59.4,38.7,28.43,West,270,11.0,12.0,46,-99.99,,,-99.99,meteohub,2013-09-14 19:47:00,
2013-09-14 22:02:00,59.0,37.8,28.43,SW,225,7.0,11.0,45,-99.99,,,-99.99,meteohub,2013-09-14 20:02:00,
2013-09-14 22:17:00,59.0,37.8,28.43,SW,225,7.0,9.0,45,-99.99,,,-99.99,meteohub,2013-09-14 20:17:00,
2013-09-14 22:32:00,58.6,37.4,28.43,WSW,248,8.0,10.0,45,-99.99,,,-99.99,meteohub,2013-09-14 20:32:00,
2013-09-14 22:47:00,58.3,36.5,28.42,WSW,248,10.0,10.0,44,-99.99,,,-99.99,meteohub,2013-09-14 20:47:00,
2013-09-14 23:02:00,57.7,35.4,28.43,SW,225,9.0,10.0,43,-99.99,,,-99.99,meteohub,2013-09-14 21:02:00,
2013-09-14 23:17:00,57.7,35.4,28.43,West,270,14.0,16.0,43,-99.99,,,-99.99,meteohub,2013-09-14 21:17:00,
2013-09-14 23:32:00,57.6,34.7,28.43,SSW,203,9.0,14.0,42,-99.99,,,-99.99,meteohub,2013-09-14 21:32:00,
2013-09-14 23:47:00,57.7,34.9,28.42,West,270,8.0,9.0,42,-99.99,,,-99.99,meteohub,2013-09-14 21:47:00,